Location: Moscow
(55.7500°N, 37.5830°E)
Time: 14:21:57
(UTC+03:00)

S-56A Canister/Altair - Pass Details

Date: 09 December 2021
Orbit: 633 x 2499 km, 38.9° (Epoch: 17 January)

Event Time Altitude Azimuth Distance (km) Brightness Sun altitude
Rises 20:54:53 0° 194° (SSW) 5,930 12.0 -39.9°
Enters shadow 20:59:27 - 182° (S) 5,003 11.5 -40.5°
Reaches altitude 10° 21:01:41 10° 174° (S) 4,607 - -40.8°
Maximum altitude 21:06:56 14° 149° (SSE) 3,973 - -41.5°
Drops below altitude 10° 21:11:33 10° 122° (ESE) 3,947 - -42.1°
Sets 21:16:26 0° 99° (E) 4,532 - -42.7°
